Location: Vancouver
(49.2500°N, 123.1330°W)
Time: 06:13:30
(UTC-08:00)

Cosmos 2333 Rocket - Visible Passes

Search period start: 04 December 2016 00:00
Search period end: 14 December 2016 00:00
Orbit: 841 x 861 km, 70.8° (Epoch: 02 December)

Date Brightness Start Highest point End Pass type
(mag) Time Alt. Az. Time Alt. Az. Time Alt. Az.
04 Dec 4.3 03:38:55 21° NE 03:38:55 21° NE 03:40:55 10° NE visible
04 Dec 2.9 05:20:58 36° NNW 05:20:58 36° NNW 05:25:14 10° NNE visible
04 Dec 4.0 07:03:38 10° NW 07:05:55 12° NNW 07:08:12 10° N visible
05 Dec 4.6 03:27:27 16° NE 03:27:27 16° NE 03:28:38 10° NE visible
05 Dec 3.2 05:09:28 31° N 05:09:28 31° N 05:12:57 10° NNE visible
05 Dec 4.0 06:51:30 10° NW 06:53:38 12° NNW 06:55:56 10° N visible
06 Dec 4.9 03:15:51 12° NE 03:15:51 12° NE 03:16:21 10° NE visible
06 Dec 3.6 04:57:53 26° N 04:57:53 26° N 05:00:40 10° NNE visible
06 Dec 4.0 06:39:54 11° NW 06:41:21 12° NNW 06:43:38 10° N visible
07 Dec 3.9 04:46:13 22° N 04:46:13 22° N 04:48:22 10° NNE visible
07 Dec 4.0 06:28:14 12° NW 06:29:04 12° NNW 06:31:21 10° N visible
08 Dec 4.1 04:34:29 18° N 04:34:29 18° N 04:36:05 10° NNE visible
08 Dec 4.1 06:16:30 12° NNW 06:16:46 12° NNW 06:19:03 10° N visible
09 Dec 4.4 04:22:43 15° NNE 04:22:43 15° NNE 04:23:48 10° NNE visible
09 Dec 4.1 06:04:44 12° NNW 06:04:44 12° NNW 06:06:46 10° N visible
10 Dec 4.6 04:10:54 13° NNE 04:10:54 13° NNE 04:11:31 10° NNE visible
10 Dec 4.2 05:52:54 12° NNW 05:52:54 12° NNW 05:54:29 10° N visible
11 Dec 4.8 03:59:02 11° NNE 03:59:02 11° NNE 03:59:13 10° NNE visible
11 Dec 4.3 05:41:03 12° NNW 05:41:03 12° NNW 05:42:11 10° N visible
12 Dec 4.4 05:29:10 11° N 05:29:10 11° N 05:29:54 10° N visible
13 Dec 4.5 05:17:15 11° N 05:17:15 11° N 05:17:36 10° N visible
